Regional Weather Roundup
Issued by NWS

Home | Current Version | Previous Version | Graphics & Text | Print | Product List | Glossary On
Versions: 1 2 3 4 5 6 7 8 9 10 11 12 13 14 15 16 17 18 19 20 21 22 23 24 25 26 27 28 29 30 31 32 33 34 35 36 37 38 39 40 41 42 43 44 45 46 47 48 49 50
000
ASUS43 KTOP 261608
RWRKS

WEATHER ROUNDUP FOR KANSAS
NATIONAL WEATHER SERVICE GOODLAND KS
1000 AM CST THU FEB 26 2015

NOTE:  "FAIR" INDICATES FEW OR NO CLOUDS BELOW 12,000 FEET WITH NO
SIGNIFICANT WEATHER AND/OR OBSTRUCTIONS TO VISIBILITY.

KSZ001>006-013>018-027>032-041>047-261700-
NORTHWEST KANSAS

CITY           SKY/WX    TMP DP  RH WIND       PRES   REMARKS
GOODLAND       CLOUDY    14   5  67 NE6       30.32R
HAYS           SUNNY     16  -4  41 NE17      30.44S WCI   0
HILL CITY      SUNNY     15   0  51 N17       30.45S WCI  -1
RUSSELL        SUNNY     14   0  53 N21G29    30.44S WCI  -4
$$

KSZ061>065-074>080-084>089-261700-
SOUTHWEST KANSAS

CITY           SKY/WX    TMP DP  RH WIND       PRES   REMARKS
DODGE CITY     MOSUNNY   17   2  51 N22G32    30.39R WCI   0
ELKHART          N/A     17   9  71 NE10        N/A  WCI   5
GARDEN CITY    PTSUNNY   14   5  67 NE17      30.37R WCI  -3
GREAT BEND     FAIR      16   0  48 N20G26    30.45S WCI  -1
LIBERAL        PTSUNNY   18   9  68 NE18      30.38R WCI   2
PRATT          MOSUNNY   18   1  49 N23G29    30.43R WCI   0
$$

KSZ066>073-081>083-090>101-261700-
SOUTHEAST KANSAS

CITY           SKY/WX    TMP DP  RH WIND       PRES   REMARKS
CHANUTE        MOSUNNY   17   4  56 N21G29    30.41R WCI   0
COFFEYVILLE    MOSUNNY   19   5  54 N25G31    30.42R WCI   1
HUTCHINSON     SUNNY     17  -2  43 N15G28    30.45R WCI   2
MEDICINE LODGE   N/A     15  -2  46 NE22G28   30.45R WCI  -3
NEWTON         SUNNY     16  -2  45 N25       30.43R WCI  -3
PARSONS        MOSUNNY   20   6  55 N18G26    30.41R WCI   5
WICHITA INTL   PTSUNNY   16  -1  47 N20G25    30.45R WCI  -1
WICHITA JABRA  SUNNY     15   0  51 N22       30.44R WCI  -3
WICHITA MCCONL SUNNY     16  -1  47 N21G26    30.44R WCI  -1
WINFIELD       MOSUNNY   18   4  54 N20G25    30.45R WCI   2
$$

KSZ007>012-019>026-033>040-048>060-102>105-261700-
NORTHEAST KANSAS

CITY           SKY/WX    TMP DP  RH WIND       PRES   REMARKS
CONCORDIA      SUNNY     10  -3  55 N20G28    30.48R WCI  -9
EMPORIA        SUNNY     14   2  58 N18G25    30.42R WCI  -3
LAWRENCE       SUNNY     14   1  56 N18G28    30.45S WCI  -3
MANHATTAN      SUNNY     13  -1  54 N15G25    30.49R WCI  -3
MARYSVILLE     MOSUNNY   10   0  61 N20       30.48R WCI  -8
OLATHE IND     MOSUNNY   13   2  61 NW20      30.42R WCI  -5
OLATHE EXE     SUNNY     13  -1  54 N17G24    30.39R WCI  -4
SALINA         SUNNY     15  -3  44 N18G24    30.49R WCI  -2
TOPEKA BILLARD SUNNY     13   0  56 NW17      30.48R WCI  -4
TOPEKA FORBES  SUNNY     14   1  56 N15       30.44R WCI  -1
$$


USA.gov is the U.S. government's official web portal to all federal, state and local government web resources and services.